User: anonymous   Login
Location: Caltech
(34.1382°N, 118.1253°W)
Time: 09:36:08
(UTC-07:00)
Language:

Cosmos 1626 - Orbit

View from above orbital plane
View from above orbital plane
View from above satellite
View from above satellite

Ground track
Ground track

The orbit data is extracted from the following two-line orbital elements,

1 15494U 85009A   16206.52655789  .00001259  00000-0  54545-4 0  9991
2 15494  82.4784 217.2388 0004099 107.2699   7.7972 15.21470457718942
Epoch (UTC): 24 July 2016 12:38:14
Eccentricity: 0.0004099
inclination: 82.4784°
perigee height: 498 km
apogee height: 504 km
right ascension of ascending node: 217.2388°
argument of perigee: 107.2699°
revolutions per day: 15.21470457
mean anomaly at epoch: 7.7972°
orbit number at epoch: 71894

The dashed part of the orbit path shows where the satellite is in the earth's shadow,  

DLR